Location: *
(45.1961°N, 1.9694°E)
Time: 22:52:58
(UTC+00:00)

SL-16 R/B - Pass Details

Date: 25 August 2019
Orbit: 842 x 846 km, 71.0° (Epoch: 19 September)

Event Time Altitude Azimuth Distance (km) Brightness Sun altitude
Rises 23:06:34 0° 325° (NW) 3,416 6.3 -33.2°
Reaches altitude 10° 23:09:17 10° 315° (NW) 2,476 5.2 -33.3°
Enters shadow 23:12:36 26° 284° (WNW) 1,603 3.8 -33.4°
